Change the Weather History Date:

Wednesday, September 12, 2012

  Actual Average Record
Temperature  
Mean Temperature 28 °F -  
Max Temperature 29 °F 13 °F 37 °F (2003)
Min Temperature 26 °F 1 °F 6 °F (2000)
Degree Days  
Heating Degree Days 38    
Moisture  
Dew Point 20 °F    
Average Humidity 72    
Maximum Humidity 74    
Minimum Humidity 59    
Precipitation  
Precipitation 0.00 in 0.01 in - ()
Sea Level Pressure  
Sea Level Pressure 29.50 in    
Wind  
Wind Speed 6 mph ()    
Max Wind Speed 12 mph    
Max Gust Speed -    
Visibility 14.4 miles    
Events      
Averages and records for this station are not official NWS values.
T = Trace of Precipitation, MM = Missing Value Source: Averaged Metar Reports

Daily Weather History Graph

Daily Weather History Graph

Search for Another Location

Airport or City:

Trip Planner

Search our weather history database for the weather conditions in past years. The results will help you decide how hot, cold, wet, or windy it might be!

Date:

Astronomy

Sep. 12, 2012 Rise Set
Actual Time 4:46 AM CDT 8:26 PM CDT
Civil Twilight 12:49 AM CDT 11:37 PM CDT
Nautical Twilight Sun does not rise Sun does not rise
Astronomical Twilight Sun does not rise Sun does not rise
Moon No Moon Rise No Moon Set
Length of Visible Light 22h 47m
Length of Day
15h 39m
Waning Crescent, 13% of the Moon is Illuminated
Sep 12
Waning Crescent
Sep 15
New
Sep 22
First Quarter
Sep 29
Full
Oct 8
Last Quarter

Hourly Weather History & Observations

Time (CDT) Temp. Windchill Dew Point Humidity Pressure Visibility Wind Dir Wind Speed Gust Speed Precip Events Conditions
1:00 AM 29 °F - 20 °F 59% 29.54 in 15 mi NNW 8.1 mph - -   Mostly Cloudy
1:00 AM 28.4 °F 20.4 °F 21.2 °F 74% 29.54 in 15.0 mi NW 8.1 mph - N/A   Mostly Cloudy
2:00 AM 28.4 °F 24.6 °F 21.2 °F 74% 29.54 in 15.0 mi West 3.5 mph - N/A   Mostly Cloudy
3:00 AM 28.4 °F 22.2 °F 19.4 °F 69% 29.54 in 15.0 mi NNW 5.8 mph - N/A   Mostly Cloudy
4:00 AM 28.4 °F 24.6 °F 21.2 °F 74% 29.54 in 15.0 mi NNW 3.5 mph - N/A   Mostly Cloudy
5:00 AM 28.4 °F - 19.4 °F 69% 29.55 in 15.0 mi Calm Calm - N/A   Mostly Cloudy
6:00 AM 26.6 °F 18.2 °F 19.4 °F 74% 29.55 in 15.0 mi SE 8.1 mph - N/A   Mostly Cloudy
7:00 AM 26 °F - 19 °F 65% 29.55 in 15 mi SE 6.9 mph - -   Scattered Clouds
7:00 AM 26.6 °F 20.0 °F 19.4 °F 74% 29.55 in 15.0 mi SE 5.8 mph - N/A   Mostly Cloudy
8:00 AM 26.6 °F - 19.4 °F 74% 29.54 in 15.0 mi NE 2.3 mph - N/A   Mostly Cloudy
9:00 AM 26.6 °F 19.1 °F 19.4 °F 74% 29.54 in 15.0 mi North 6.9 mph - N/A   Mostly Cloudy
10:00 AM 28.4 °F - 19.4 °F 69% 29.53 in 15.0 mi North 2.3 mph - N/A   Mostly Cloudy
11:00 AM 28.4 °F 23.3 °F 19.4 °F 69% 29.52 in 15.0 mi West 4.6 mph - N/A   Mostly Cloudy
12:00 PM 28.4 °F 21.2 °F 21.2 °F 74% 29.51 in 15.0 mi West 6.9 mph - N/A   Mostly Cloudy
1:00 PM 28 °F - 20 °F 63% 29.50 in 15 mi West 10.4 mph - -   Partly Cloudy
1:00 PM 28.4 °F 19.7 °F 21.2 °F 74% 29.50 in 15.0 mi West 9.2 mph - N/A   Mostly Cloudy
2:00 PM 28.4 °F 19.1 °F 21.2 °F 74% 29.49 in 15.0 mi West 10.4 mph - N/A   Mostly Cloudy
3:00 PM 28.4 °F 19.1 °F 21.2 °F 74% 29.49 in 15.0 mi West 10.4 mph - N/A   Mostly Cloudy
3:36 PM - - - N/A% - 10.0 mi West 11.5 mph - N/A   Unknown
4:00 PM 28.4 °F 18.5 °F 21.2 °F 74% 29.47 in 10.0 mi West 11.5 mph - N/A   Mostly Cloudy
5:00 PM 28.4 °F 18.5 °F 21.2 °F 74% 29.46 in 10.0 mi West 11.5 mph - N/A   Mostly Cloudy
6:00 PM 28.4 °F 21.2 °F 21.2 °F 74% 29.45 in 15.0 mi West 6.9 mph - N/A   Mostly Cloudy
7:00 PM 28 °F - 21 °F 67% 29.43 in 15 mi West 4.6 mph - -   Partly Cloudy
7:00 PM 28.4 °F 22.2 °F 21.2 °F 74% 29.43 in 15.0 mi West 5.8 mph - N/A   Scattered Clouds
8:00 PM 28.4 °F 20.4 °F 21.2 °F 74% 29.43 in 15.0 mi West 8.1 mph - N/A   Mostly Cloudy
9:00 PM 28.4 °F 19.1 °F 21.2 °F 74% 29.42 in 15.0 mi West 10.4 mph - N/A   Scattered Clouds
10:00 PM 28.4 °F 21.2 °F 21.2 °F 74% 29.40 in 15.0 mi West 6.9 mph - N/A   Scattered Clouds